TimeCDT,TemperatureF,Dew PointF,Humidity,Sea Level PressureIn,VisibilityMPH,Wind Direction,Wind SpeedMPH,Gust SpeedMPH,PrecipitationIn,Events,Conditions,WindDirDegrees,DateUTC
12:56 AM,45.0,41.0,86,29.81,-9999.0,Calm,Calm,-,N/A,,Unknown,0,2013-10-18 05:56:00
1:56 AM,45.0,37.9,76,29.81,-9999.0,NE,3.5,-,N/A,,Unknown,50,2013-10-18 06:56:00
2:56 AM,44.1,37.0,76,29.81,-9999.0,Calm,Calm,-,N/A,,Unknown,0,2013-10-18 07:56:00
3:56 AM,43.0,37.0,80,29.81,-9999.0,Calm,Calm,-,N/A,,Unknown,0,2013-10-18 08:56:00
4:56 AM,43.0,37.0,80,29.82,-9999.0,Calm,Calm,-,N/A,,Unknown,0,2013-10-18 09:56:00
5:56 AM,43.0,36.0,76,29.82,-9999.0,Calm,Calm,-,N/A,,Unknown,0,2013-10-18 10:56:00
6:56 AM,42.1,35.1,76,29.84,-9999.0,Calm,Calm,-,N/A,,Unknown,0,2013-10-18 11:56:00
7:56 AM,42.1,34.0,73,29.86,-9999.0,Calm,Calm,-,N/A,,Unknown,0,2013-10-18 12:56:00
8:56 AM,42.1,34.0,73,29.87,-9999.0,Calm,Calm,-,N/A,,Unknown,0,2013-10-18 13:56:00
9:56 AM,45.0,34.0,65,29.88,-9999.0,Calm,Calm,-,N/A,,Unknown,0,2013-10-18 14:56:00
10:56 AM,46.0,32.0,58,29.88,-9999.0,Variable,3.5,-,N/A,,Unknown,0,2013-10-18 15:56:00
11:56 AM,48.0,30.9,52,29.88,-9999.0,NW,5.8,-,N/A,,Unknown,320,2013-10-18 16:56:00
12:56 PM,51.1,28.0,41,29.86,-9999.0,Variable,4.6,-,N/A,,Unknown,0,2013-10-18 17:56:00
1:56 PM,51.1,28.0,41,29.85,-9999.0,Variable,6.9,-,N/A,,Unknown,0,2013-10-18 18:56:00
2:56 PM,50.0,26.1,39,29.84,-9999.0,Calm,Calm,-,N/A,,Unknown,0,2013-10-18 19:56:00
3:56 PM,48.9,33.1,54,29.84,-9999.0,SSW,6.9,-,N/A,,Unknown,200,2013-10-18 20:56:00
4:56 PM,48.0,37.0,66,29.84,-9999.0,SW,13.8,-,N/A,,Unknown,230,2013-10-18 21:56:00
5:56 PM,45.0,35.1,68,29.84,-9999.0,Variable,5.8,-,N/A,,Unknown,0,2013-10-18 22:56:00
6:56 PM,44.1,34.0,68,29.86,-9999.0,NW,4.6,-,N/A,,Unknown,310,2013-10-18 23:56:00
7:56 PM,44.1,34.0,68,29.85,-9999.0,Calm,Calm,-,N/A,,Unknown,0,2013-10-19 00:56:00
8:56 PM,39.9,36.0,86,29.85,-9999.0,WNW,3.5,-,0.05,,Unknown,300,2013-10-19 01:56:00
9:56 PM,37.9,35.1,89,29.83,-9999.0,Calm,Calm,-,N/A,,Unknown,0,2013-10-19 02:56:00
10:56 PM,36.0,33.1,89,29.82,-9999.0,NNW,3.5,-,N/A,,Unknown,340,2013-10-19 03:56:00
11:56 PM,37.0,35.1,93,29.81,-9999.0,Calm,Calm,-,N/A,,Unknown,0,2013-10-19 04:56:00